Simultaneous Nadir Overpasses (SNOs) Predictions

Prediction of SNOs between GOES-15 and NPP Satellite Orbit:

Table of predicted SNOs for the next 14.0 days since TLE Epoch: 7/28/2013
Index Date Time (GOES-15) GOES-15 Lat,Lon NPP Lat,Lon Distance(km) Time Diff (sec)
1 07/28/2013 22:27:33 0.26,-135.37 0.10,-136.01 72.60 80
2 07/29/2013 22:11:29 0.25,-135.37 1.10,-131.47 443.14 80
3 07/31/2013 10:30:40 -0.27,-135.37 0.07,-136.75 158.08 80
4 08/01/2013 10:14:37 -0.27,-135.36 -0.99,-132.23 357.17 80
5 08/02/2013 22:33:55 0.28,-135.34 -0.20,-137.54 251.03 80
6 08/03/2013 22:17:52 0.28,-135.33 0.80,-133.01 264.00 80
7 08/05/2013 10:37:02 -0.29,-135.32 0.36,-138.29 337.85 80
8 08/06/2013 10:20:59 -0.29,-135.31 -0.64,-133.76 176.80 80
9 08/07/2013 22:40:17
